International Skating Union - Official Site

ISU World Cup Heerenveen
December 9-11, 2016

Draw | Lap Times | Index | World Cup

Referee: Hanjo  HEIDEMAN  (NED)
Starter: Jyrki  JÄÄSKELÄINEN  (FIN)
StartTime: EndTime: Air Temp: Ice Temp: Humidity:
18:12 13.6 ℃ -7.2 ℃ 38%
Result Team Pursuit Ladies
Rankings as of Dec 10 2016 5:33PM
Rank: No.: Team: Nation: Time: Behind: Points:
Total 9
1 201 Japan (255) Miho Takagi (254) Ayano Sato (256) Nana Takagi JPN JPN 2:59.510.5 - 18.27 - (18.2)
1.0 - 32.40 - (14.1)
1.5 - 46.57 - (14.1)
2.0 - 1:00.87 - (14.2)
2.5 - 1:15.44 - (14.5)
3.0 - 1:30.03 - (14.5)
3.5 - 1:44.92 - (14.8)
4.0 - 1:59.55 - (14.6)
4.5 - 2:14.17 - (14.6)
5.0 - 2:29.12 - (14.9)
5.5 - 2:44.22 - (15.0)
6.0 - 2:59.51 - (15.2)
100
2 205 Germany (239) Gabriele Hirschbichler (238) Roxane Dufter (241) Isabell Ost GER GER 3:02.470.5 - 19.06 - (19.0)
1.0 - 33.24 - (14.1)
1.5 - 47.57 - (14.3)
2.0 - 1:01.71 - (14.1)
2.5 - 1:16.18 - (14.4)
3.0 - 1:30.75 - (14.5)
3.5 - 1:45.73 - (14.9)
4.0 - 2:00.43 - (14.7)
4.5 - 2:15.49 - (15.0)
5.0 - 2:31.00 - (15.5)
5.5 - 2:46.82 - (15.8)
6.0 - 3:02.47 - (15.6)
2.96 80
3 204 Poland (293) Katarzyna Wozniak (291) Natalia Czerwonka (289) Katarzyna Bachleda-Curus (295) Luiza Zlotkowska POL POL 3:03.500.5 - 19.16 - (19.1)
1.0 - 33.67 - (14.5)
1.5 - 47.82 - (14.1)
2.0 - 1:02.24 - (14.4)
2.5 - 1:16.93 - (14.6)
3.0 - 1:31.83 - (14.8)
3.5 - 1:46.42 - (14.5)
4.0 - 2:01.26 - (14.8)
4.5 - 2:16.26 - (14.9)
5.0 - 2:31.66 - (15.4)
5.5 - 2:47.41 - (15.7)
6.0 - 3:03.50 - (16.0)
3.99 70
4 203 Russia (306) Natalia Voronina (302) Elizaveta Kazelina (301) Olga Graf (304) Yekaterina Shikhova RUS RUS 3:04.330.5 - 19.09 - (19.0)
1.0 - 33.56 - (14.4)
1.5 - 48.09 - (14.5)
2.0 - 1:02.51 - (14.4)
2.5 - 1:17.03 - (14.5)
3.0 - 1:31.84 - (14.8)
3.5 - 1:46.79 - (14.9)
4.0 - 2:02.08 - (15.2)
4.5 - 2:17.29 - (15.2)
5.0 - 2:32.57 - (15.2)
5.5 - 2:48.39 - (15.8)
6.0 - 3:04.33 - (15.9)
4.82 60
5 210 Canada (212) Brianne Tutt (207) Ivanie Blondin (213) Isabelle Weidemann CAN CAN 3:04.490.5 - 19.57 - (19.5)
1.0 - 34.38 - (14.8)
1.5 - 49.07 - (14.6)
2.0 - 1:03.82 - (14.7)
2.5 - 1:18.73 - (14.9)
3.0 - 1:33.65 - (14.9)
3.5 - 1:48.83 - (15.1)
4.0 - 2:03.75 - (14.9)
4.5 - 2:19.00 - (15.2)
5.0 - 2:34.18 - (15.1)
5.5 - 2:49.36 - (15.1)
6.0 - 3:04.49 - (15.1)
4.98 50
6 209 USA (308) Petra Acker (312) Mia Manganello (311) Kelly Gunther (313) Paige Schwartzburg USA USA 3:04.630.5 - 19.71 - (19.7)
1.0 - 34.11 - (14.3)
1.5 - 48.50 - (14.3)
2.0 - 1:02.72 - (14.2)
2.5 - 1:17.21 - (14.4)
3.0 - 1:31.82 - (14.6)
3.5 - 1:46.72 - (14.9)
4.0 - 2:01.70 - (14.9)
4.5 - 2:17.11 - (15.4)
5.0 - 2:32.58 - (15.4)
5.5 - 2:48.33 - (15.7)
6.0 - 3:04.63 - (16.2)
5.12 45
7 207 Korea (266) Ji Woo Park (265) Seon-Yeong Noh (261) Bo-Reum Kim KOR KOR 3:06.420.5 - 19.15 - (19.1)
1.0 - 33.42 - (14.2)
1.5 - 47.84 - (14.4)
2.0 - 1:02.42 - (14.5)
2.5 - 1:17.30 - (14.8)
3.0 - 1:32.01 - (14.7)
3.5 - 1:46.93 - (14.9)
4.0 - 2:01.95 - (15.0)
4.5 - 2:17.47 - (15.5)
5.0 - 2:33.47 - (16.0)
5.5 - 2:49.83 - (16.3)
6.0 - 3:06.42 - (16.5)
6.91 40
8 206 China (227) Xin Zhao (223) Moyuan Xu (222) Jiaying Tao CHN CHN 3:11.600.5 - 19.08 - (19.0)
1.0 - 33.50 - (14.4)
1.5 - 47.94 - (14.4)
2.0 - 1:02.96 - (15.0)
2.5 - 1:18.07 - (15.1)
3.0 - 1:33.58 - (15.5)
3.5 - 1:49.25 - (15.6)
4.0 - 2:05.36 - (16.1)
4.5 - 2:21.81 - (16.4)
5.0 - 2:38.77 - (16.9)
5.5 - 2:55.20 - (16.4)
6.0 - 3:11.60 - (16.4)
12.09 35
9 202 Netherlands (275) Marrit Leenstra (282) Ireen Wüst (272) Linda de Vries (279) Annouk van der Weijden NED NED 3:38.150.5 - 18.64 - (18.6)
1.0 - 32.71 - (14.0)
1.5 - 46.55 - (13.8)
2.0 - 1:00.66 - (14.1)
2.5 - 1:14.78 - (14.1)
3.0 - 1:52.32 - (37.5)
3.5 - 2:14.18 - (21.8)
4.0 - 2:33.16 - (18.9)
4.5 - 2:49.94 - (16.7)
5.0 - 3:06.33 - (16.3)
5.5 - 3:22.54 - (16.2)
6.0 - 3:38.15 - (15.6)
38.64 30